Time,TemperatureF,DewpointF,PressureIn,WindDirection,WindDirectionDegrees,WindSpeedMPH,WindSpeedGustMPH,Humidity,HourlyPrecipIn,Conditions,Clouds,dailyrainin,SolarRadiationWatts/m^2,SoftwareType,DateUTC
2013-06-26 00:02:00,84.2,24.1,-100.00,SSE,167,4.0,11.0,11,0.00,,,0.00,0.0,meteohub,2013-06-26 04:02:00,
2013-06-26 00:07:00,84.4,24.1,-100.00,South,176,3.0,11.0,11,0.00,,,0.00,0.0,meteohub,2013-06-26 04:07:00,
2013-06-26 00:12:00,84.2,24.1,-100.00,SE,138,5.0,11.0,11,0.00,,,0.00,0.0,meteohub,2013-06-26 04:12:00,
2013-06-26 00:17:00,84.4,26.2,-100.00,SE,138,0.0,11.0,12,0.00,,,0.00,0.0,meteohub,2013-06-26 04:17:00,
2013-06-26 00:22:00,84.2,26.1,-100.00,SE,132,0.0,11.0,12,0.00,,,0.00,0.0,meteohub,2013-06-26 04:22:00,
2013-06-26 00:27:00,84.0,23.9,-100.00,SSE,161,2.0,11.0,11,0.00,,,0.00,0.0,meteohub,2013-06-26 04:27:00,
2013-06-26 00:32:00,84.4,24.1,-100.00,ESE,123,0.0,11.0,11,0.00,,,0.00,0.0,meteohub,2013-06-26 04:32:00,
2013-06-26 00:37:00,84.2,24.1,-100.00,ESE,123,0.0,11.0,11,0.00,,,0.00,0.0,meteohub,2013-06-26 04:37:00,
2013-06-26 00:42:00,84.2,21.7,-100.00,SSE,149,3.0,11.0,10,0.00,,,0.00,0.0,meteohub,2013-06-26 04:42:00,
2013-06-26 00:47:00,84.2,21.7,-100.00,South,183,2.0,7.0,10,0.00,,,0.00,0.0,meteohub,2013-06-26 04:47:00,
2013-06-26 00:52:00,84.4,24.1,-100.00,SSE,159,1.0,7.0,11,0.00,,,0.00,0.0,meteohub,2013-06-26 04:52:00,
2013-06-26 00:57:00,84.6,26.4,-100.00,SE,137,5.0,7.0,12,0.00,,,0.00,0.0,meteohub,2013-06-26 04:57:00,
2013-06-26 01:07:00,84.6,26.4,-100.00,SE,139,0.0,7.0,12,0.00,,,0.00,0.0,meteohub,2013-06-26 05:07:00,
2013-06-26 01:12:00,84.4,24.1,-100.00,SSE,157,4.0,7.0,11,0.00,,,0.00,0.0,meteohub,2013-06-26 05:12:00,
2013-06-26 01:17:00,84.2,24.1,-100.00,South,180,0.0,7.0,11,0.00,,,0.00,0.0,meteohub,2013-06-26 05:17:00,
2013-06-26 01:22:00,84.6,26.4,-100.00,South,171,2.0,7.0,12,0.00,,,0.00,0.0,meteohub,2013-06-26 05:22:00,
2013-06-26 01:27:00,84.4,26.2,-100.00,SSE,152,0.0,10.0,12,0.00,,,0.00,0.0,meteohub,2013-06-26 05:27:00,
2013-06-26 01:32:00,84.2,24.1,-100.00,SSE,152,4.0,10.0,11,0.00,,,0.00,0.0,meteohub,2013-06-26 05:32:00,
2013-06-26 01:37:00,84.4,24.1,-100.00,SSE,148,3.0,10.0,11,0.00,,,0.00,0.0,meteohub,2013-06-26 05:37:00,
2013-06-26 01:42:00,84.2,24.1,-100.00,South,170,3.0,10.0,11,0.00,,,0.00,0.0,meteohub,2013-06-26 05:42:00,
2013-06-26 01:47:00,84.0,23.9,-100.00,South,170,4.0,10.0,11,0.00,,,0.00,0.0,meteohub,2013-06-26 05:47:00,
2013-06-26 01:52:00,84.0,23.9,-100.00,South,184,4.0,10.0,11,0.00,,,0.00,0.0,meteohub,2013-06-26 05:52:00,
2013-06-26 01:57:00,84.6,24.3,-100.00,SSE,166,4.0,10.0,11,0.00,,,0.00,0.0,meteohub,2013-06-26 05:57:00,
2013-06-26 02:02:00,84.4,24.1,-100.00,South,180,5.0,10.0,11,0.00,,,0.00,0.0,meteohub,2013-06-26 06:02:00,
2013-06-26 02:07:00,84.2,21.7,-100.00,SSE,165,1.0,10.0,10,0.00,,,0.00,0.0,meteohub,2013-06-26 06:07:00,
2013-06-26 02:12:00,84.2,21.7,-100.00,South,184,6.0,10.0,10,0.00,,,0.00,0.0,meteohub,2013-06-26 06:12:00,
2013-06-26 02:17:00,84.6,24.3,-100.00,South,180,5.0,10.0,11,0.00,,,0.00,0.0,meteohub,2013-06-26 06:17:00,
2013-06-26 02:22:00,84.4,24.1,-100.00,South,182,5.0,10.0,11,0.00,,,0.00,0.0,meteohub,2013-06-26 06:22:00,
2013-06-26 02:27:00,83.8,27.7,-100.00,SE,140,3.0,10.0,13,0.00,,,0.00,0.0,meteohub,2013-06-26 06:27:00,
2013-06-26 02:32:00,84.4,24.1,-100.00,SSE,159,3.0,13.0,11,0.00,,,0.00,0.0,meteohub,2013-06-26 06:32:00,
2013-06-26 02:37:00,84.0,23.9,-100.00,SE,142,4.0,13.0,11,0.00,,,0.00,0.0,meteohub,2013-06-26 06:37:00,
2013-06-26 02:42:00,83.8,21.4,-100.00,SSW,192,2.0,13.0,10,0.00,,,0.00,0.0,meteohub,2013-06-26 06:42:00,
2013-06-26 02:47:00,83.8,21.4,-100.00,SE,137,6.0,13.0,10,0.00,,,0.00,0.0,meteohub,2013-06-26 06:47:00,
2013-06-26 02:52:00,83.8,21.4,-100.00,South,180,2.0,13.0,10,0.00,,,0.00,0.0,meteohub,2013-06-26 06:52:00,
2013-06-26 02:57:00,84.0,23.9,-100.00,South,181,0.0,13.0,11,0.00,,,0.00,0.0,meteohub,2013-06-26 06:57:00,
2013-06-26 03:02:00,83.8,21.4,-100.00,SSE,159,3.0,9.0,10,0.00,,,0.00,0.0,meteohub,2013-06-26 07:02:00,
2013-06-26 03:07:00,83.7,21.4,-100.00,South,171,2.0,9.0,10,0.00,,,0.00,0.0,meteohub,2013-06-26 07:07:00,
2013-06-26 03:12:00,84.0,21.6,-100.00,South,179,5.0,9.0,10,0.00,,,0.00,0.0,meteohub,2013-06-26 07:12:00,
2013-06-26 03:17:00,83.8,21.4,-100.00,SE,140,5.0,9.0,10,0.00,,,0.00,0.0,meteohub,2013-06-26 07:17:00,
2013-06-26 03:22:00,84.0,25.9,-100.00,SE,139,6.0,9.0,12,0.00,,,0.00,0.0,meteohub,2013-06-26 07:22:00,
2013-06-26 03:27:00,83.8,25.9,-100.00,South,169,5.0,9.0,12,0.00,,,0.00,0.0,meteohub,2013-06-26 07:27:00,
2013-06-26 03:32:00,83.8,23.7,-100.00,South,173,5.0,9.0,11,0.00,,,0.00,0.0,meteohub,2013-06-26 07:32:00,
2013-06-26 03:37:00,83.5,21.2,-100.00,SW,222,10.0,10.0,10,0.00,,,0.00,0.0,meteohub,2013-06-26 07:37:00,
2013-06-26 03:42:00,82.6,18.0,-100.00,SSW,200,0.0,9.0,9,0.00,,,0.00,0.0,meteohub,2013-06-26 07:42:00,
2013-06-26 03:47:00,82.0,17.6,-100.00,South,175,0.0,9.0,9,0.00,,,0.01,0.0,meteohub,2013-06-26 07:47:00,
2013-06-26 03:52:00,81.9,17.4,-100.00,SE,142,6.0,9.0,9,0.00,,,0.01,0.0,meteohub,2013-06-26 07:52:00,
2013-06-26 03:57:00,81.3,19.6,-100.00,SSW,202,7.0,9.0,10,0.01,,,0.01,0.0,meteohub,2013-06-26 07:57:00,
2013-06-26 04:02:00,80.8,19.2,-100.00,SSE,159,2.0,11.0,10,0.01,,,0.01,0.0,meteohub,2013-06-26 08:02:00,
2013-06-26 04:07:00,80.4,21.0,-100.00,South,181,2.0,11.0,11,0.01,,,0.01,0.0,meteohub,2013-06-26 08:07:00,
2013-06-26 04:12:00,80.2,23.0,-100.00,South,181,0.0,11.0,12,0.01,,,0.01,0.0,meteohub,2013-06-26 08:12:00,
2013-06-26 04:17:00,80.2,23.0,-100.00,South,173,0.0,11.0,12,0.01,,,0.01,0.0,meteohub,2013-06-26 08:17:00,
2013-06-26 04:27:00,80.4,25.2,-100.00,SSE,168,3.0,11.0,13,0.01,,,0.13,0.0,meteohub,2013-06-26 08:27:00,
2013-06-26 04:32:00,80.8,23.4,-100.00,SSE,162,0.0,6.0,12,0.13,,,0.13,0.0,meteohub,2013-06-26 08:32:00,
2013-06-26 04:37:00,81.0,23.5,-100.00,South,174,4.0,6.0,12,0.13,,,0.13,0.0,meteohub,2013-06-26 08:37:00,
2013-06-26 04:42:00,81.3,21.7,-100.00,SSE,154,5.0,6.0,11,0.13,,,0.13,0.0,meteohub,2013-06-26 08:42:00,
2013-06-26 04:47:00,81.7,19.8,-100.00,SSE,147,4.0,6.0,10,0.13,,,0.13,0.0,meteohub,2013-06-26 08:47:00,
2013-06-26 04:52:00,81.9,19.9,-100.00,South,169,0.0,6.0,10,0.13,,,0.13,0.0,meteohub,2013-06-26 08:52:00,
2013-06-26 04:57:00,82.0,20.1,-100.00,SE,137,2.0,6.0,10,0.13,,,0.13,0.0,meteohub,2013-06-26 08:57:00,
2013-06-26 05:02:00,82.8,18.1,-100.00,ESE,123,6.0,7.0,9,0.10,,,0.13,0.0,meteohub,2013-06-26 09:02:00,
2013-06-26 05:07:00,82.8,18.1,-100.00,SSE,163,3.0,7.0,9,0.10,,,0.13,0.0,meteohub,2013-06-26 09:07:00,
2013-06-26 05:12:00,82.8,18.1,-100.00,SSE,148,1.0,7.0,9,0.10,,,0.13,0.0,meteohub,2013-06-26 09:12:00,
2013-06-26 05:17:00,82.6,18.0,-100.00,SSE,167,0.0,7.0,9,0.10,,,0.13,0.0,meteohub,2013-06-26 09:17:00,
2013-06-26 05:22:00,82.8,18.1,-100.00,South,184,4.0,7.0,9,0.10,,,0.13,0.0,meteohub,2013-06-26 09:22:00,
2013-06-26 05:27:00,82.8,18.1,-100.00,South,186,9.0,9.0,9,0.10,,,0.13,0.0,meteohub,2013-06-26 09:27:00,
2013-06-26 05:32:00,82.6,18.0,-100.00,South,173,6.0,7.0,9,0.10,,,0.13,0.0,meteohub,2013-06-26 09:32:00,
2013-06-26 05:42:00,81.9,17.4,-100.00,SSE,157,3.0,17.0,9,0.00,,,0.13,0.0,meteohub,2013-06-26 09:42:00,
2013-06-26 05:47:00,81.7,17.4,-100.00,South,188,3.0,17.0,9,0.00,,,0.13,0.0,meteohub,2013-06-26 09:47:00,
2013-06-26 05:57:00,81.9,17.4,-100.00,South,169,1.0,17.0,9,0.00,,,0.13,0.0,meteohub,2013-06-26 09:57:00,
2013-06-26 06:02:00,81.7,17.4,-100.00,SSE,158,5.0,17.0,9,0.00,,,0.13,0.0,meteohub,2013-06-26 10:02:00,
2013-06-26 06:07:00,81.9,17.4,-100.00,South,176,4.0,17.0,9,0.00,,,0.13,0.0,meteohub,2013-06-26 10:07:00,
2013-06-26 06:12:00,82.0,17.6,-100.00,South,178,6.0,17.0,9,0.00,,,0.13,0.0,meteohub,2013-06-26 10:12:00,
2013-06-26 06:17:00,81.1,19.4,-100.00,SSW,196,9.0,10.0,10,0.00,,,0.13,0.0,meteohub,2013-06-26 10:17:00,
2013-06-26 06:22:00,80.6,21.2,-100.00,South,186,5.0,10.0,11,0.00,,,0.13,0.0,meteohub,2013-06-26 10:22:00,
2013-06-26 06:27:00,80.2,21.0,-100.00,SSE,164,0.0,10.0,11,0.00,,,0.13,11.0,meteohub,2013-06-26 10:27:00,
2013-06-26 06:32:00,80.2,21.0,-100.00,SSE,163,0.0,10.0,11,0.00,,,0.13,30.0,meteohub,2013-06-26 10:32:00,
2013-06-26 06:42:00,80.6,23.4,-100.00,South,180,1.0,10.0,12,0.00,,,0.16,44.0,meteohub,2013-06-26 10:42:00,
2013-06-26 06:47:00,80.8,21.4,-100.00,South,179,3.0,10.0,11,0.00,,,0.16,54.0,meteohub,2013-06-26 10:47:00,
2013-06-26 06:52:00,80.8,21.4,-100.00,South,179,2.0,10.0,11,0.04,,,0.16,54.0,meteohub,2013-06-26 10:52:00,
2013-06-26 06:57:00,81.0,23.5,-100.00,South,183,2.0,7.0,12,0.04,,,0.16,98.0,meteohub,2013-06-26 10:57:00,
2013-06-26 07:02:00,81.0,23.5,-100.00,South,190,0.0,7.0,12,0.04,,,0.16,81.0,meteohub,2013-06-26 11:02:00,
2013-06-26 07:07:00,81.1,21.6,-100.00,SSW,192,1.0,7.0,11,0.04,,,0.16,102.0,meteohub,2013-06-26 11:07:00,
2013-06-26 07:12:00,81.1,21.6,-100.00,South,184,1.0,7.0,11,0.04,,,0.16,156.0,meteohub,2013-06-26 11:12:00,
2013-06-26 07:22:00,81.3,21.7,-100.00,SSW,209,7.0,7.0,11,0.04,,,0.17,151.0,meteohub,2013-06-26 11:22:00,
2013-06-26 07:27:00,81.9,19.9,-100.00,SSW,192,3.0,7.0,10,0.04,,,0.17,160.0,meteohub,2013-06-26 11:27:00,
2013-06-26 07:37:00,82.9,18.3,-100.00,SSE,156,5.0,9.0,9,0.01,,,0.17,186.0,meteohub,2013-06-26 11:37:00,
2013-06-26 07:42:00,83.5,18.7,-100.00,SSW,198,4.0,9.0,9,0.01,,,0.17,202.0,meteohub,2013-06-26 11:42:00,
2013-06-26 07:47:00,84.0,21.6,-100.00,South,171,3.0,9.0,10,0.01,,,0.17,220.0,meteohub,2013-06-26 11:47:00,
2013-06-26 07:57:00,84.7,24.4,-100.00,South,180,2.0,9.0,11,0.01,,,0.17,248.0,meteohub,2013-06-26 11:57:00,
2013-06-26 08:02:00,84.7,24.4,-100.00,South,183,4.0,9.0,11,0.00,,,0.17,269.0,meteohub,2013-06-26 12:02:00,
2013-06-26 08:07:00,85.1,24.6,-100.00,SSE,160,4.0,10.0,11,0.00,,,0.17,281.0,meteohub,2013-06-26 12:07:00,
2013-06-26 08:12:00,85.5,25.0,-100.00,South,170,4.0,10.0,11,0.00,,,0.17,301.0,meteohub,2013-06-26 12:12:00,
2013-06-26 08:17:00,85.3,22.6,-100.00,South,185,0.0,10.0,10,0.00,,,0.17,320.0,meteohub,2013-06-26 12:17:00,
2013-06-26 08:22:00,85.3,22.6,-100.00,ESE,120,4.0,10.0,10,0.00,,,0.17,334.0,meteohub,2013-06-26 12:22:00,
2013-06-26 08:27:00,85.8,23.0,-100.00,SE,146,0.0,10.0,10,0.00,,,0.17,357.0,meteohub,2013-06-26 12:27:00,
2013-06-26 08:32:00,85.6,27.1,-100.00,SSE,166,3.0,10.0,12,0.00,,,0.17,373.0,meteohub,2013-06-26 12:32:00,
2013-06-26 08:37:00,85.8,23.0,-100.00,SSE,166,6.0,10.0,10,0.00,,,0.17,388.0,meteohub,2013-06-26 12:37:00,
2013-06-26 08:42:00,86.2,25.5,-100.00,SE,145,6.0,11.0,11,0.00,,,0.17,399.0,meteohub,2013-06-26 12:42:00,
2013-06-26 08:47:00,86.4,31.5,-100.00,SSE,158,9.0,11.0,14,0.00,,,0.17,422.0,meteohub,2013-06-26 12:47:00,
2013-06-26 08:52:00,86.2,31.5,-100.00,SSE,148,4.0,11.0,14,0.00,,,0.17,485.0,meteohub,2013-06-26 12:52:00,
2013-06-26 08:57:00,86.2,33.1,-100.00,South,184,3.0,11.0,15,0.00,,,0.17,461.0,meteohub,2013-06-26 12:57:00,
2013-06-26 09:02:00,86.4,31.5,-100.00,SSE,159,0.0,11.0,14,0.00,,,0.17,469.0,meteohub,2013-06-26 13:02:00,
2013-06-26 09:07:00,86.4,31.5,-100.00,South,184,6.0,11.0,14,0.00,,,0.17,499.0,meteohub,2013-06-26 13:07:00,
2013-06-26 09:12:00,86.0,37.6,-100.00,South,190,9.0,11.0,18,0.00,,,0.17,527.0,meteohub,2013-06-26 13:12:00,
2013-06-26 09:17:00,86.4,34.9,-100.00,SSE,155,7.0,14.0,16,0.00,,,0.17,176.0,meteohub,2013-06-26 13:17:00,
2013-06-26 09:22:00,86.5,36.5,-100.00,South,179,0.0,14.0,17,0.00,,,0.17,571.0,meteohub,2013-06-26 13:22:00,
2013-06-26 09:27:00,86.5,41.9,-100.00,South,169,2.0,14.0,21,0.00,,,0.17,578.0,meteohub,2013-06-26 13:27:00,
2013-06-26 09:32:00,86.7,42.1,-100.00,South,183,5.0,14.0,21,0.00,,,0.17,585.0,meteohub,2013-06-26 13:32:00,
2013-06-26 09:37:00,86.4,40.6,-100.00,South,175,4.0,14.0,20,0.00,,,0.17,608.0,meteohub,2013-06-26 13:37:00,
2013-06-26 09:42:00,87.1,37.0,-100.00,South,173,4.0,14.0,17,0.00,,,0.17,638.0,meteohub,2013-06-26 13:42:00,
2013-06-26 09:47:00,87.1,37.0,-100.00,South,170,5.0,12.0,17,0.00,,,0.17,664.0,meteohub,2013-06-26 13:47:00,
2013-06-26 09:57:00,86.9,41.0,-100.00,SSW,195,13.0,13.0,20,0.00,,,0.17,719.0,meteohub,2013-06-26 13:57:00,
2013-06-26 10:02:00,86.9,41.0,-100.00,SE,138,5.0,12.0,20,0.00,,,0.17,719.0,meteohub,2013-06-26 14:02:00,
2013-06-26 10:07:00,87.1,38.5,-100.00,SSE,159,6.0,12.0,18,0.00,,,0.17,710.0,meteohub,2013-06-26 14:07:00,
2013-06-26 10:12:00,87.3,37.2,-100.00,ESE,105,6.0,12.0,17,0.00,,,0.17,728.0,meteohub,2013-06-26 14:12:00,
2013-06-26 10:17:00,87.3,41.4,-100.00,SSW,195,6.0,12.0,20,0.00,,,0.17,728.0,meteohub,2013-06-26 14:17:00,
2013-06-26 10:22:00,86.9,38.3,-100.00,SSE,157,2.0,14.0,18,0.00,,,0.17,738.0,meteohub,2013-06-26 14:22:00,
2013-06-26 10:27:00,87.1,39.7,-100.00,SE,137,6.0,14.0,19,0.00,,,0.17,744.0,meteohub,2013-06-26 14:27:00,
2013-06-26 10:32:00,87.3,45.0,-100.00,South,169,13.0,14.0,23,0.00,,,0.17,758.0,meteohub,2013-06-26 14:32:00,
2013-06-26 10:37:00,87.1,42.4,-100.00,SE,138,7.0,14.0,21,0.00,,,0.17,784.0,meteohub,2013-06-26 14:37:00,
2013-06-26 10:42:00,87.1,38.5,-100.00,SSW,203,6.0,14.0,18,0.00,,,0.17,768.0,meteohub,2013-06-26 14:42:00,
2013-06-26 10:47:00,87.1,41.2,-100.00,SSW,202,13.0,17.0,20,0.00,,,0.17,742.0,meteohub,2013-06-26 14:47:00,
2013-06-26 10:52:00,86.7,38.1,-100.00,South,178,2.0,17.0,18,0.00,,,0.17,770.0,meteohub,2013-06-26 14:52:00,
2013-06-26 10:57:00,86.7,38.1,-100.00,SSW,205,7.0,17.0,18,0.00,,,0.17,809.0,meteohub,2013-06-26 14:57:00,
2013-06-26 11:02:00,87.1,41.2,-100.00,SSW,202,10.0,17.0,20,0.00,,,0.17,805.0,meteohub,2013-06-26 15:02:00,
2013-06-26 11:07:00,86.9,43.5,-100.00,SSE,155,6.0,15.0,22,0.00,,,0.17,893.0,meteohub,2013-06-26 15:07:00,
2013-06-26 11:12:00,86.4,48.4,-100.00,SSW,195,14.0,15.0,27,0.00,,,0.17,847.0,meteohub,2013-06-26 15:12:00,
2013-06-26 11:17:00,86.4,50.4,-100.00,South,180,5.0,15.0,29,0.00,,,0.17,849.0,meteohub,2013-06-26 15:17:00,
2013-06-26 11:22:00,86.5,51.4,-100.00,SE,141,5.0,15.0,30,0.00,,,0.17,895.0,meteohub,2013-06-26 15:22:00,
2013-06-26 11:27:00,86.4,50.4,-100.00,South,169,11.0,14.0,29,0.00,,,0.17,863.0,meteohub,2013-06-26 15:27:00,
2013-06-26 11:32:00,86.5,49.6,-100.00,SSW,200,9.0,14.0,28,0.00,,,0.17,745.0,meteohub,2013-06-26 15:32:00,
2013-06-26 11:37:00,86.7,47.7,-100.00,South,188,3.0,14.0,26,0.00,,,0.17,844.0,meteohub,2013-06-26 15:37:00,
2013-06-26 11:42:00,86.7,47.7,-100.00,SSE,167,9.0,14.0,26,0.00,,,0.17,872.0,meteohub,2013-06-26 15:42:00,
2013-06-26 11:47:00,87.1,49.1,-100.00,SSW,192,6.0,14.0,27,0.00,,,0.17,881.0,meteohub,2013-06-26 15:47:00,
2013-06-26 11:52:00,87.1,51.8,-100.00,South,181,7.0,13.0,30,0.00,,,0.17,895.0,meteohub,2013-06-26 15:52:00,
2013-06-26 11:57:00,87.4,49.3,-100.00,SSE,153,1.0,13.0,27,0.00,,,0.17,932.0,meteohub,2013-06-26 15:57:00,
2013-06-26 12:02:00,87.1,55.2,-100.00,SSE,150,3.0,13.0,34,0.00,,,0.17,933.0,meteohub,2013-06-26 16:02:00,
2013-06-26 12:07:00,87.1,54.5,-100.00,SSE,149,6.0,13.0,33,0.00,,,0.17,944.0,meteohub,2013-06-26 16:07:00,
2013-06-26 12:12:00,86.7,54.1,-100.00,SSE,155,6.0,13.0,33,0.00,,,0.17,981.0,meteohub,2013-06-26 16:12:00,
2013-06-26 12:22:00,86.9,55.2,-100.00,SSW,198,10.0,17.0,34,0.00,,,0.17,988.0,meteohub,2013-06-26 16:22:00,
2013-06-26 12:27:00,87.1,52.7,-100.00,South,182,4.0,17.0,31,0.00,,,0.17,984.0,meteohub,2013-06-26 16:27:00,
2013-06-26 12:32:00,86.5,56.5,-100.00,ESE,119,6.0,17.0,36,0.00,,,0.17,963.0,meteohub,2013-06-26 16:32:00,
2013-06-26 12:37:00,87.1,55.2,-100.00,SE,144,8.0,17.0,34,0.00,,,0.17,947.0,meteohub,2013-06-26 16:37:00,
2013-06-26 12:42:00,87.3,57.7,-100.00,South,178,8.0,17.0,37,0.00,,,0.17,990.0,meteohub,2013-06-26 16:42:00,
2013-06-26 12:47:00,87.1,56.8,-100.00,SE,128,3.0,15.0,36,0.00,,,0.17,998.0,meteohub,2013-06-26 16:47:00,
2013-06-26 12:52:00,87.3,54.7,-100.00,SE,141,5.0,15.0,33,0.00,,,0.17,1002.0,meteohub,2013-06-26 16:52:00,
2013-06-26 12:57:00,87.1,54.5,-100.00,SSE,162,7.0,15.0,33,0.00,,,0.17,1062.0,meteohub,2013-06-26 16:57:00,
2013-06-26 13:02:00,87.1,55.2,-100.00,SSW,196,5.0,15.0,34,0.00,,,0.17,1009.0,meteohub,2013-06-26 17:02:00,
2013-06-26 13:07:00,87.4,53.1,-100.00,SSW,207,9.0,15.0,31,0.00,,,0.17,1053.0,meteohub,2013-06-26 17:07:00,
2013-06-26 13:17:00,87.3,55.4,-100.00,SSW,203,5.0,13.0,34,0.00,,,0.17,1030.0,meteohub,2013-06-26 17:17:00,
2013-06-26 13:22:00,87.3,54.7,-100.00,SSW,194,9.0,13.0,33,0.00,,,0.17,1099.0,meteohub,2013-06-26 17:22:00,
2013-06-26 13:27:00,87.1,51.8,-100.00,SE,126,6.0,13.0,30,0.00,,,0.17,1053.0,meteohub,2013-06-26 17:27:00,
2013-06-26 13:32:00,87.1,51.8,-100.00,SSW,192,8.0,13.0,30,0.00,,,0.17,1030.0,meteohub,2013-06-26 17:32:00,
2013-06-26 13:37:00,87.1,53.6,-100.00,SE,146,9.0,16.0,32,0.00,,,0.17,1039.0,meteohub,2013-06-26 17:37:00,
2013-06-26 13:42:00,87.1,50.9,-100.00,South,184,6.0,16.0,29,0.00,,,0.17,1039.0,meteohub,2013-06-26 17:42:00,
2013-06-26 13:47:00,87.3,52.9,-100.00,SSE,151,7.0,16.0,31,0.00,,,0.17,1005.0,meteohub,2013-06-26 17:47:00,
2013-06-26 13:52:00,88.0,47.8,-100.00,South,171,5.0,16.0,25,0.00,,,0.17,403.0,meteohub,2013-06-26 17:52:00,
2013-06-26 13:57:00,88.0,49.8,-100.00,South,187,7.0,16.0,27,0.00,,,0.17,1005.0,meteohub,2013-06-26 17:57:00,
2013-06-26 14:02:00,88.2,46.8,-100.00,East,86,8.0,17.0,24,0.00,,,0.17,1035.0,meteohub,2013-06-26 18:02:00,
2013-06-26 14:07:00,87.4,50.4,-100.00,South,190,6.0,17.0,28,0.00,,,0.17,1067.0,meteohub,2013-06-26 18:07:00,
2013-06-26 14:12:00,88.0,49.8,-100.00,SSW,192,7.0,17.0,27,0.00,,,0.17,1044.0,meteohub,2013-06-26 18:12:00,
2013-06-26 14:17:00,87.6,50.5,-100.00,SE,128,9.0,17.0,28,0.00,,,0.17,1130.0,meteohub,2013-06-26 18:17:00,
2013-06-26 14:22:00,87.3,52.0,-100.00,South,190,10.0,16.0,30,0.00,,,0.17,951.0,meteohub,2013-06-26 18:22:00,
2013-06-26 14:27:00,86.9,58.3,-100.00,South,188,7.0,16.0,38,0.00,,,0.17,958.0,meteohub,2013-06-26 18:27:00,
2013-06-26 14:32:00,87.6,66.7,-100.00,SE,141,10.0,16.0,50,0.00,,,0.17,958.0,meteohub,2013-06-26 18:32:00,
2013-06-26 14:37:00,86.5,63.9,-100.00,SSE,150,7.0,16.0,47,0.00,,,0.17,812.0,meteohub,2013-06-26 18:37:00,
2013-06-26 14:42:00,86.4,57.0,-100.00,SSW,211,5.0,18.0,37,0.00,,,0.17,598.0,meteohub,2013-06-26 18:42:00,
2013-06-26 14:47:00,86.4,54.7,-100.00,South,174,6.0,18.0,34,0.00,,,0.17,561.0,meteohub,2013-06-26 18:47:00,
2013-06-26 14:52:00,85.8,50.7,-100.00,SSE,167,7.0,18.0,30,0.00,,,0.17,715.0,meteohub,2013-06-26 18:52:00,
2013-06-26 14:57:00,85.6,53.2,-100.00,SSE,161,4.0,18.0,33,0.00,,,0.17,497.0,meteohub,2013-06-26 18:57:00,
2013-06-26 15:02:00,84.7,57.7,-100.00,SSE,148,10.0,15.0,40,0.00,,,0.17,308.0,meteohub,2013-06-26 19:02:00,
2013-06-26 15:07:00,85.1,56.7,-100.00,SSE,159,3.0,15.0,38,0.00,,,0.17,290.0,meteohub,2013-06-26 19:07:00,
2013-06-26 15:12:00,84.9,59.2,-100.00,South,191,7.0,15.0,42,0.00,,,0.17,288.0,meteohub,2013-06-26 19:12:00,
2013-06-26 15:17:00,84.6,60.8,-100.00,SSE,154,6.0,15.0,45,0.00,,,0.17,292.0,meteohub,2013-06-26 19:17:00,
2013-06-26 15:22:00,84.6,60.3,-100.00,South,180,5.0,15.0,44,0.00,,,0.17,274.0,meteohub,2013-06-26 19:22:00,
2013-06-26 15:27:00,84.6,51.4,-100.00,SSE,165,3.0,11.0,32,0.00,,,0.17,258.0,meteohub,2013-06-26 19:27:00,
2013-06-26 15:32:00,84.7,47.1,-100.00,SSW,192,3.0,11.0,27,0.00,,,0.17,250.0,meteohub,2013-06-26 19:32:00,
2013-06-26 15:37:00,85.3,46.6,-100.00,SE,139,2.0,11.0,26,0.00,,,0.17,241.0,meteohub,2013-06-26 19:37:00,
2013-06-26 15:42:00,85.3,46.6,-100.00,South,177,6.0,11.0,26,0.00,,,0.17,236.0,meteohub,2013-06-26 19:42:00,
2013-06-26 15:47:00,85.3,44.4,-100.00,SSE,167,6.0,11.0,24,0.00,,,0.17,234.0,meteohub,2013-06-26 19:47:00,
2013-06-26 15:52:00,85.5,44.6,-100.00,SSE,157,4.0,12.0,24,0.00,,,0.17,230.0,meteohub,2013-06-26 19:52:00,
2013-06-26 15:57:00,85.6,44.8,-100.00,South,175,0.0,12.0,24,0.00,,,0.17,225.0,meteohub,2013-06-26 19:57:00,
2013-06-26 16:02:00,85.8,43.7,-100.00,South,173,5.0,12.0,23,0.00,,,0.17,221.0,meteohub,2013-06-26 20:02:00,
2013-06-26 16:07:00,86.0,40.3,-100.00,SSE,153,1.0,12.0,20,0.00,,,0.17,220.0,meteohub,2013-06-26 20:07:00,
2013-06-26 16:12:00,85.8,42.6,-100.00,South,182,5.0,12.0,22,0.00,,,0.17,220.0,meteohub,2013-06-26 20:12:00,
2013-06-26 16:17:00,85.6,42.4,-100.00,SSE,150,7.0,10.0,22,0.00,,,0.17,223.0,meteohub,2013-06-26 20:17:00,
2013-06-26 16:22:00,85.8,40.1,-100.00,South,180,5.0,10.0,20,0.00,,,0.17,225.0,meteohub,2013-06-26 20:22:00,
2013-06-26 16:27:00,85.8,42.6,-100.00,South,177,3.0,10.0,22,0.00,,,0.17,223.0,meteohub,2013-06-26 20:27:00,
2013-06-26 16:32:00,85.5,43.5,-100.00,South,170,9.0,10.0,23,0.00,,,0.17,225.0,meteohub,2013-06-26 20:32:00,
2013-06-26 16:37:00,85.5,41.0,-100.00,SSW,201,5.0,10.0,21,0.00,,,0.17,225.0,meteohub,2013-06-26 20:37:00,
2013-06-26 16:42:00,85.6,39.9,-100.00,SE,145,5.0,10.0,20,0.00,,,0.17,221.0,meteohub,2013-06-26 20:42:00,
2013-06-26 16:47:00,86.0,41.5,-100.00,SSE,150,4.0,10.0,21,0.00,,,0.17,213.0,meteohub,2013-06-26 20:47:00,
2013-06-26 16:52:00,85.8,43.7,-100.00,South,176,6.0,10.0,23,0.00,,,0.17,202.0,meteohub,2013-06-26 20:52:00,
2013-06-26 16:57:00,85.8,40.1,-100.00,SE,129,6.0,11.0,20,0.00,,,0.17,193.0,meteohub,2013-06-26 20:57:00,
2013-06-26 17:02:00,85.5,39.7,-100.00,SE,139,6.0,11.0,20,0.00,,,0.17,188.0,meteohub,2013-06-26 21:02:00,
2013-06-26 17:07:00,85.8,40.1,-100.00,SSW,194,2.0,11.0,20,0.00,,,0.17,185.0,meteohub,2013-06-26 21:07:00,
2013-06-26 17:12:00,85.6,41.2,-100.00,SSE,162,1.0,11.0,21,0.00,,,0.17,186.0,meteohub,2013-06-26 21:12:00,
2013-06-26 17:17:00,85.6,41.2,-100.00,SSE,156,7.0,11.0,21,0.00,,,0.17,195.0,meteohub,2013-06-26 21:17:00,
2013-06-26 17:22:00,85.6,39.9,-100.00,South,183,1.0,11.0,20,0.00,,,0.17,204.0,meteohub,2013-06-26 21:22:00,
2013-06-26 17:27:00,85.8,40.1,-100.00,South,179,3.0,11.0,20,0.00,,,0.17,211.0,meteohub,2013-06-26 21:27:00,
2013-06-26 17:32:00,85.8,38.8,-100.00,South,182,7.0,11.0,19,0.00,,,0.17,207.0,meteohub,2013-06-26 21:32:00,
2013-06-26 17:37:00,85.8,36.0,-100.00,SSW,192,3.0,11.0,17,0.00,,,0.17,199.0,meteohub,2013-06-26 21:37:00,
2013-06-26 17:47:00,85.8,40.1,-100.00,SSE,164,3.0,8.0,20,0.00,,,0.17,181.0,meteohub,2013-06-26 21:47:00,
2013-06-26 17:52:00,86.2,37.8,-100.00,SSW,192,3.0,8.0,18,0.00,,,0.17,174.0,meteohub,2013-06-26 21:52:00,
2013-06-26 17:57:00,86.2,39.0,-100.00,SE,144,3.0,8.0,19,0.00,,,0.17,172.0,meteohub,2013-06-26 21:57:00,
2013-06-26 18:02:00,86.4,36.3,-100.00,SSE,159,5.0,11.0,17,0.00,,,0.17,162.0,meteohub,2013-06-26 22:02:00,
2013-06-26 18:07:00,86.0,36.1,-100.00,South,180,2.0,11.0,17,0.00,,,0.17,153.0,meteohub,2013-06-26 22:07:00,
2013-06-26 18:12:00,86.2,33.1,-100.00,SSW,205,7.0,11.0,15,0.00,,,0.17,146.0,meteohub,2013-06-26 22:12:00,
2013-06-26 18:17:00,86.2,33.1,-100.00,SE,145,5.0,11.0,15,0.00,,,0.17,139.0,meteohub,2013-06-26 22:17:00,
2013-06-26 18:22:00,85.6,32.7,-100.00,South,171,6.0,11.0,15,0.00,,,0.17,130.0,meteohub,2013-06-26 22:22:00,
2013-06-26 18:27:00,85.6,32.7,-100.00,SSE,164,4.0,11.0,15,-99.99,,,0.17,113.0,meteohub,2013-06-26 22:27:00,
2013-06-26 18:32:00,85.6,34.3,-100.00,SSE,162,4.0,12.0,16,0.00,,,0.17,120.0,meteohub,2013-06-26 22:32:00,
2013-06-26 18:37:00,85.6,38.7,-100.00,SSE,167,4.0,12.0,19,0.00,,,0.17,114.0,meteohub,2013-06-26 22:37:00,
2013-06-26 18:42:00,85.3,38.3,-100.00,SE,140,1.0,12.0,19,0.00,,,0.17,109.0,meteohub,2013-06-26 22:42:00,
2013-06-26 18:47:00,85.3,37.0,-100.00,SSE,166,3.0,12.0,18,0.00,,,0.17,100.0,meteohub,2013-06-26 22:47:00,
2013-06-26 18:57:00,85.3,38.3,-100.00,South,179,0.0,10.0,19,0.00,,,0.17,84.0,meteohub,2013-06-26 22:57:00,
2013-06-26 19:02:00,85.3,37.0,-100.00,SE,145,6.0,10.0,18,0.00,,,0.17,77.0,meteohub,2013-06-26 23:02:00,
2013-06-26 19:07:00,85.3,37.0,-100.00,SSW,198,0.0,10.0,18,0.00,,,0.17,70.0,meteohub,2013-06-26 23:07:00,
2013-06-26 19:12:00,85.3,38.3,-100.00,South,190,4.0,10.0,19,0.00,,,0.17,62.0,meteohub,2013-06-26 23:12:00,
2013-06-26 19:17:00,84.9,38.1,-100.00,South,184,4.0,10.0,19,0.00,,,0.17,54.0,meteohub,2013-06-26 23:17:00,
2013-06-26 19:22:00,84.7,37.9,-100.00,South,173,0.0,8.0,19,0.00,,,0.17,49.0,meteohub,2013-06-26 23:22:00,
2013-06-26 19:27:00,84.7,37.9,-100.00,South,180,4.0,8.0,19,0.00,,,0.17,44.0,meteohub,2013-06-26 23:27:00,
2013-06-26 19:32:00,84.6,41.5,-100.00,South,173,5.0,8.0,22,0.00,,,0.17,39.0,meteohub,2013-06-26 23:32:00,
2013-06-26 19:37:00,84.2,43.5,-100.00,South,175,4.0,8.0,24,0.00,,,0.17,33.0,meteohub,2013-06-26 23:37:00,
2013-06-26 19:42:00,83.8,44.2,-100.00,SSE,151,0.0,9.0,25,0.00,,,0.17,28.0,meteohub,2013-06-26 23:42:00,
2013-06-26 19:52:00,84.0,46.4,-100.00,SE,146,5.0,9.0,27,0.00,,,0.17,18.0,meteohub,2013-06-26 23:52:00,
2013-06-26 19:57:00,84.0,43.3,-100.00,SSE,168,3.0,9.0,24,0.00,,,0.17,12.0,meteohub,2013-06-26 23:57:00,
2013-06-26 20:02:00,84.4,42.6,-100.00,SSE,150,2.0,10.0,23,0.00,,,0.17,9.0,meteohub,2013-06-27 00:02:00,
2013-06-26 20:07:00,84.4,40.1,-100.00,SSE,164,3.0,10.0,21,0.00,,,0.17,5.0,meteohub,2013-06-27 00:07:00,
2013-06-26 20:12:00,84.6,37.8,-100.00,SSW,207,9.0,10.0,19,0.00,,,0.17,0.0,meteohub,2013-06-27 00:12:00,
2013-06-26 20:17:00,84.6,37.8,-100.00,South,175,2.0,10.0,19,0.00,,,0.00,0.0,meteohub,2013-06-27 00:17:00,
2013-06-26 20:22:00,84.4,34.9,-100.00,SSE,161,4.0,10.0,17,0.00,,,0.00,0.0,meteohub,2013-06-27 00:22:00,
2013-06-26 20:27:00,84.4,31.6,-100.00,South,188,5.0,10.0,15,0.00,,,0.00,0.0,meteohub,2013-06-27 00:27:00,
2013-06-26 20:32:00,84.6,30.2,-100.00,SSW,203,10.0,10.0,14,0.00,,,0.00,0.0,meteohub,2013-06-27 00:32:00,
2013-06-26 20:37:00,84.6,30.2,-100.00,South,184,5.0,10.0,14,0.00,,,0.00,0.0,meteohub,2013-06-27 00:37:00,
2013-06-26 20:47:00,84.4,33.3,-100.00,SSW,194,6.0,10.0,16,0.00,,,0.00,0.0,meteohub,2013-06-27 00:47:00,
2013-06-26 20:52:00,84.4,36.3,-100.00,SSE,168,2.0,13.0,18,0.00,,,0.00,0.0,meteohub,2013-06-27 00:52:00,
2013-06-26 20:57:00,84.0,37.4,-100.00,South,170,4.0,13.0,19,0.00,,,0.00,0.0,meteohub,2013-06-27 00:57:00,
2013-06-26 21:02:00,83.5,43.0,-100.00,SSW,197,8.0,13.0,24,0.00,,,0.00,0.0,meteohub,2013-06-27 01:02:00,
2013-06-26 21:07:00,83.3,44.8,-100.00,South,188,5.0,13.0,26,0.00,,,0.00,0.0,meteohub,2013-06-27 01:07:00,
2013-06-26 21:12:00,83.5,47.8,-100.00,South,181,0.0,13.0,29,0.00,,,0.00,0.0,meteohub,2013-06-27 01:12:00,
2013-06-26 21:17:00,83.7,46.2,-100.00,SSE,160,1.0,11.0,27,0.00,,,0.00,0.0,meteohub,2013-06-27 01:17:00,
2013-06-26 21:22:00,83.7,44.1,-100.00,South,181,2.0,11.0,25,0.00,,,0.00,0.0,meteohub,2013-06-27 01:22:00,
2013-06-26 21:27:00,83.7,40.8,-100.00,South,173,0.0,11.0,22,0.00,,,0.00,0.0,meteohub,2013-06-27 01:27:00,
2013-06-26 21:32:00,84.0,39.9,-100.00,South,186,5.0,11.0,21,0.00,,,0.00,0.0,meteohub,2013-06-27 01:32:00,
2013-06-26 21:37:00,84.0,41.0,-100.00,South,179,4.0,11.0,22,0.00,,,0.00,0.0,meteohub,2013-06-27 01:37:00,
2013-06-26 21:42:00,84.0,38.7,-100.00,SSE,157,2.0,11.0,20,0.00,,,0.00,0.0,meteohub,2013-06-27 01:42:00,
2013-06-26 21:47:00,84.0,38.7,-100.00,SSW,196,10.0,11.0,20,0.00,,,0.00,0.0,meteohub,2013-06-27 01:47:00,
2013-06-26 21:52:00,84.0,36.0,-100.00,SSE,163,4.0,11.0,18,0.00,,,0.00,0.0,meteohub,2013-06-27 01:52:00,
2013-06-26 21:57:00,84.0,34.5,-100.00,SSW,202,5.0,11.0,17,0.00,,,0.00,0.0,meteohub,2013-06-27 01:57:00,
2013-06-26 22:02:00,84.4,33.3,-100.00,SE,136,5.0,11.0,16,0.00,,,0.00,0.0,meteohub,2013-06-27 02:02:00,
2013-06-26 22:07:00,84.4,34.9,-100.00,SSE,155,0.0,11.0,17,0.00,,,0.00,0.0,meteohub,2013-06-27 02:07:00,
2013-06-26 22:17:00,84.6,33.4,-100.00,SSE,168,2.0,11.0,16,0.00,,,0.00,0.0,meteohub,2013-06-27 02:17:00,
2013-06-26 22:22:00,84.7,30.2,-100.00,South,180,3.0,11.0,14,0.00,,,0.00,0.0,meteohub,2013-06-27 02:22:00,
2013-06-26 22:27:00,84.6,26.4,-100.00,South,178,0.0,11.0,12,0.00,,,0.00,0.0,meteohub,2013-06-27 02:27:00,
2013-06-26 22:32:00,84.6,26.4,-100.00,South,187,0.0,11.0,12,0.00,,,0.00,0.0,meteohub,2013-06-27 02:32:00,
2013-06-26 22:37:00,84.7,26.4,-100.00,South,176,3.0,11.0,12,0.00,,,0.00,0.0,meteohub,2013-06-27 02:37:00,
2013-06-26 22:42:00,84.6,26.4,-100.00,South,175,2.0,10.0,12,0.00,,,0.00,0.0,meteohub,2013-06-27 02:42:00,
2013-06-26 22:47:00,84.4,26.2,-100.00,South,174,0.0,10.0,12,0.00,,,0.00,0.0,meteohub,2013-06-27 02:47:00,
2013-06-26 22:52:00,84.4,26.2,-100.00,South,181,4.0,10.0,12,0.00,,,0.00,0.0,meteohub,2013-06-27 02:52:00,
2013-06-26 22:57:00,84.7,28.4,-100.00,SSE,168,6.0,10.0,13,0.00,,,0.00,0.0,meteohub,2013-06-27 02:57:00,
2013-06-26 23:02:00,84.6,26.4,-100.00,SSE,163,3.0,10.0,12,0.00,,,0.00,0.0,meteohub,2013-06-27 03:02:00,
2013-06-26 23:07:00,84.4,26.2,-100.00,South,180,5.0,10.0,12,0.00,,,0.00,0.0,meteohub,2013-06-27 03:07:00,
2013-06-26 23:12:00,84.2,26.1,-100.00,SSE,155,0.0,9.0,12,0.00,,,0.00,0.0,meteohub,2013-06-27 03:12:00,
2013-06-26 23:17:00,84.6,26.4,-100.00,South,180,5.0,9.0,12,0.00,,,0.00,0.0,meteohub,2013-06-27 03:17:00,
2013-06-26 23:22:00,84.7,28.4,-100.00,SSE,163,2.0,9.0,13,0.00,,,0.00,0.0,meteohub,2013-06-27 03:22:00,
2013-06-26 23:27:00,84.4,28.2,-100.00,South,174,4.0,9.0,13,0.00,,,0.00,0.0,meteohub,2013-06-27 03:27:00,
2013-06-26 23:37:00,84.0,23.9,-100.00,SSE,168,0.0,9.0,11,0.00,,,0.00,0.0,meteohub,2013-06-27 03:37:00,
2013-06-26 23:42:00,84.0,23.9,-100.00,South,185,0.0,9.0,11,0.00,,,0.00,0.0,meteohub,2013-06-27 03:42:00,
2013-06-26 23:47:00,83.8,23.7,-100.00,SSW,192,6.0,9.0,11,0.00,,,0.00,0.0,meteohub,2013-06-27 03:47:00,
2013-06-26 23:52:00,84.0,23.9,-100.00,South,188,3.0,9.0,11,0.00,,,0.00,0.0,meteohub,2013-06-27 03:52:00,
2013-06-26 23:57:00,84.0,23.9,-100.00,SE,132,5.0,9.0,11,0.00,,,0.00,0.0,meteohub,2013-06-27 03:57:00,